Tracking 25710 objects as of 6-Jul-2022
HD Live streaming from Space Station
objects crossing your sky now

STARLINK-2632

Track STARLINK-2632 now!
10-day predictions
STARLINK-2632 is classified as:


NORAD ID: 48448
Int'l Code: 2021-040W
Perigee: 552.9 km
Apogee: 555.8 km
Inclination: 53.1 °
Period: 95.6 minutes
Semi major axis: 6925 km
RCS: Unknown
Launch date: May 9, 2021
Source: United States (US)
Launch site: AIR FORCE EASTERN TEST RANGE (AFETR)
aabbcc
Your satellite tracking list
Your tracking list is empty




NASA's NSSDC Master Catalog

Two Line Element Set (TLE):
1 48448U 21040W   22187.15082936 -.00000750  00000-0 -31442-4 0  9991
2 48448  53.0558  88.5216 0002119  76.4208 283.7017 15.06407387 65545
Source of the keplerian elements: AFSPC